User: anonymous   Login
Location: Beuerbach
(48.1459°N, 10.9174°E)
Time: 02:20:30
(UTC+00:00)
Language:

SL-27 R/B - Orbit

View from above orbital plane
View from above orbital plane
View from above satellite
View from above satellite

Ground track
Ground track

The orbit data is extracted from the following two-line orbital elements,

1 40354U 14084B   24194.30768010  .00069465  00000-0  37807-3 0  9996
2 40354  74.7210 154.7456 0017681 285.5852  74.3429 15.79434154538108
Epoch (UTC): 12 July 2024 07:23:03
Eccentricity: 0.0017681
inclination: 74.7210°
perigee height: 320 km
apogee height: 344 km
right ascension of ascending node: 154.7456°
argument of perigee: 285.5852°
revolutions per day: 15.79434154
mean anomaly at epoch: 74.3429°
orbit number at epoch: 53810

The dashed part of the orbit path shows where the satellite is in the earth's shadow,  

DLR